Fulton, NY

3:29 PM EST on December 06, 2016 (GMT -0500)
Oswego County

Weather History for KFZY - October, 2011

Change the Weather History Date:

Friday, October 14, 2011

  Actual Average (KSYR) Record (KSYR)
Temperature  
Mean Temperature 62 °F 51 °F  
Max Temperature 72 °F 61 °F 85 °F (1954)
Min Temperature 53 °F 42 °F 25 °F (1993)
Degree Days  
Heating Degree Days 2 14  
Month to date heating degree days 166  
Since 1 July heating degree days 333  
Cooling Degree Days 0 0  
Month to date cooling degree days 0  
Year to date cooling degree days 565  
Growing Degree Days 12 (Base 50)    
Moisture  
Dew Point 57 °F    
Average Humidity 88    
Maximum Humidity 100    
Minimum Humidity 64    
Precipitation  
Precipitation 0.53 in 0.11 in 1.38 in (1995)
Month to date precipitation 1.58  
Year to date precipitation 29.86  
Snow  
Snow 0.00 in 0.00 in T in (2006)
Month to date snowfall 0.0  
Since 1 July snowfall 0.0  
Since 1 September snowfall 0.0  
Snow Depth -    
Sea Level Pressure  
Sea Level Pressure 29.38 in    
Wind  
Wind Speed 9 mph (South)    
Max Wind Speed 23 mph    
Max Gust Speed 36 mph    
Visibility 8 miles    
Events Rain , Thunderstorm    
T = Trace of Precipitation, MM = Missing Value Source: NWS Daily Summary

Daily Weather History Graph

Daily Weather History Graph

Search for Another Location

Airport or City:

Trip Planner

Search our weather history database for the weather conditions in past years. The results will help you decide how hot, cold, wet, or windy it might be!

Date:

Astronomy

Oct. 14, 2011 Rise Set
Actual Time 7:17 AM EDT 6:24 PM EDT
Civil Twilight 6:49 AM EDT 6:53 PM EDT
Nautical Twilight 6:16 AM EDT 7:26 PM EDT
Astronomical Twilight 5:42 AM EDT 7:59 PM EDT
Moon 7:30 PM EDT (10/14) 9:50 AM EDT (10/14)
Length of Visible Light 12h 04m
Length of Day
11h 06m
Waning Gibbous, 94% of the Moon is Illuminated
Oct 14
Waning Gibbous
Oct 19
Last Quarter
Oct 26
New
Nov 2
First Quarter
Nov 10
Full

Hourly Weather History & Observations

Time (EDT) Temp. Dew Point Humidity Pressure Visibility Wind Dir Wind Speed Gust Speed Precip Events Conditions
12:52 AM 62.6 °F 59.0 °F 88% 29.54 in 10.0 mi ESE 8.1 mph - N/A   Mostly Cloudy
12:54 AM 63.0 °F 59.0 °F 87% 29.54 in 10.0 mi Variable 6.9 mph - N/A   Mostly Cloudy
1:26 AM 62.6 °F 59.0 °F 88% 29.54 in 10.0 mi Variable 5.8 mph - N/A   Overcast
1:34 AM 62.6 °F 59.0 °F 88% 29.53 in 10.0 mi Variable 6.9 mph - 0.00 in Rain Light Rain
1:54 AM 63.0 °F 60.1 °F 90% 29.51 in 7.0 mi East 8.1 mph - 0.01 in Rain Light Rain
2:54 AM 62.1 °F 60.1 °F 93% 29.50 in 10.0 mi Variable 6.9 mph 16.1 mph 0.01 in Rain Light Rain
3:24 AM 62.6 °F 60.8 °F 94% 29.48 in 10.0 mi ESE 6.9 mph - 0.00 in   Overcast
3:54 AM 62.1 °F 60.1 °F 93% 29.49 in 5.0 mi ESE 5.8 mph - 0.06 in Rain Rain
4:54 AM 61.0 °F 59.0 °F 93% 29.45 in 10.0 mi ESE 6.9 mph - 0.03 in   Mostly Cloudy
5:30 AM 60.8 °F 59.0 °F 94% 29.45 in 10.0 mi ESE 6.9 mph - N/A   Mostly Cloudy
5:54 AM 62.1 °F 60.1 °F 93% 29.44 in 10.0 mi ESE 8.1 mph - N/A   Overcast
6:46 AM 60.8 °F 60.8 °F 100% 29.44 in 10.0 mi ESE 8.1 mph - N/A   Scattered Clouds
6:54 AM 62.1 °F 60.1 °F 93% 29.43 in 10.0 mi East 6.9 mph - N/A   Scattered Clouds
7:54 AM 62.1 °F 60.1 °F 93% 29.42 in 10.0 mi ESE 8.1 mph - N/A   Clear
8:54 AM 64.0 °F 61.0 °F 90% 29.41 in 10.0 mi Variable 6.9 mph - N/A   Clear
9:54 AM 66.9 °F 61.0 °F 81% 29.39 in 10.0 mi SE 8.1 mph - N/A   Clear
10:54 AM 69.1 °F 61.0 °F 75% 29.38 in 10.0 mi SE 9.2 mph - N/A   Clear
11:54 AM 70.0 °F 61.0 °F 73% 29.36 in 8.0 mi Variable 5.8 mph - N/A   Clear
12:54 PM 70.0 °F 57.9 °F 65% 29.33 in 10.0 mi SE 3.5 mph - N/A   Clear
1:54 PM 72.0 °F 59.0 °F 64% 29.29 in 10.0 mi SSE 6.9 mph - N/A   Partly Cloudy
2:22 PM 66.2 °F 59.0 °F 78% 29.30 in 1.8 mi SSW 23.0 mph 35.7 mph 0.07 in Rain Heavy Rain
2:31 PM 62.6 °F 57.2 °F 82% 29.30 in 1.2 mi SSW 15.0 mph 26.5 mph 0.17 in Rain , Thunderstorm Heavy Thunderstorms and Rain
2:37 PM 62.6 °F 57.2 °F 82% 29.29 in 2.0 mi SSW 10.4 mph 20.7 mph 0.18 in Rain , Thunderstorm Light Thunderstorms and Rain
2:46 PM 62.6 °F 57.2 °F 82% 29.29 in 5.0 mi South 12.7 mph 19.6 mph 0.20 in Rain , Thunderstorm Light Rain
2:50 PM 62.6 °F 57.2 °F 82% 29.28 in 1.8 mi South 16.1 mph 29.9 mph 0.26 in Rain , Thunderstorm Heavy Rain
2:54 PM 62.1 °F 57.0 °F 84% 29.28 in 1.5 mi South 9.2 mph 29.9 mph 0.27 in Rain Heavy Rain
2:59 PM 62.6 °F 57.2 °F 82% 29.28 in 3.0 mi SSW 8.1 mph - 0.00 in Rain Light Rain
3:54 PM 60.1 °F 57.0 °F 90% 29.31 in 3.0 mi WSW 23.0 mph 28.8 mph 0.04 in Rain Light Rain
4:02 PM 57.2 °F 55.4 °F 94% 29.31 in 2.5 mi West 13.8 mph 28.8 mph 0.03 in Rain Heavy Rain
4:10 PM 57.2 °F 53.6 °F 88% 29.31 in 4.0 mi WSW 11.5 mph 20.7 mph 0.04 in Rain Light Rain
4:54 PM 57.9 °F 55.0 °F 90% 29.32 in 10.0 mi WSW 6.9 mph - 0.04 in   Overcast
5:54 PM 57.0 °F 55.9 °F 96% 29.32 in 8.0 mi SW 3.5 mph - 0.02 in Rain Light Rain
6:54 PM 57.0 °F 55.0 °F 93% 29.33 in 10.0 mi SW 9.2 mph - 0.00 in Rain Light Rain
7:17 PM 57.2 °F 53.6 °F 88% 29.34 in 10.0 mi SW 9.2 mph - 0.01 in Rain Light Rain
7:29 PM 57.2 °F 53.6 °F 88% 29.34 in 10.0 mi SW 9.2 mph - 0.01 in Rain Light Rain
7:43 PM 57.2 °F 53.6 °F 88% 29.35 in 10.0 mi SW 10.4 mph - 0.01 in   Overcast
7:54 PM 55.9 °F 54.0 °F 93% 29.35 in 10.0 mi WSW 12.7 mph 18.4 mph 0.01 in Rain Light Rain
8:54 PM 55.9 °F 53.1 °F 90% 29.36 in 10.0 mi SW 9.2 mph 17.3 mph 0.00 in Rain Light Rain
9:19 PM 55.4 °F 51.8 °F 88% 29.36 in 10.0 mi SW 8.1 mph - 0.02 in Rain Light Rain
9:54 PM 54.0 °F 52.0 °F 93% 29.36 in 10.0 mi SW 10.4 mph 17.3 mph 0.02 in Rain Light Rain
10:10 PM 53.6 °F 51.8 °F 94% 29.37 in 10.0 mi WSW 9.2 mph - 0.00 in Rain Light Rain
10:24 PM 53.6 °F 51.8 °F 94% 29.37 in 10.0 mi SW 10.4 mph 23.0 mph 0.00 in Rain Light Rain
10:54 PM 53.1 °F 51.1 °F 93% 29.37 in 10.0 mi SW 10.4 mph - 0.02 in Rain Light Rain
11:54 PM 53.1 °F 48.9 °F 86% 29.36 in 10.0 mi SW 10.4 mph - 0.00 in   Overcast